Location: ?????????
(55.6553°N, 38.9075°E)
Time: 04:30:46
(UTC+00:00)

Daily predictions for brighter satellites

Satellite Brightness Start Highest point End
(mag) Time Altitude Azimuth Time Altitude Azimuth Time Altitude Azimuth
Cosmos 2369 Rocket 4.5 00:14:54 11° NNW 00:18:36 19° NNE 00:22:32 10° ENE
Meteor 2-4 Rocket 4.4 00:22:12 47° N 00:22:12 47° N 00:26:22 10° NNE
Cosmos 2322 Rocket 2.4 00:23:49 65° NNE 00:23:49 65° NNE 00:28:36 10° NE
Exosat Rocket 4.3 00:26:33 68° WNW 00:26:46 69° NW 00:32:50 10° NNE
Lacrosse 4 Rocket 3.3 00:29:24 25° NNE 00:29:24 25° NNE 00:31:18 10° NE
SL-08 R/B 4.4 00:30:53 83° NW 00:30:53 83° NW 00:37:00 10° N
Cosmos 2344 4.4 00:25:24 24° NW 00:31:04 62° NNE 00:42:25 10° ESE
NOSS 3-2 (A) 3.8 00:30:42 65° WNW 00:31:51 76° SW 00:40:01 10° SE
Cosmos 1269 Rocket 4.3 00:33:26 60° N 00:33:26 60° N 00:37:51 10° NNE
Cosmos 2360 Rocket 2.3 00:33:25 68° ESE 00:33:28 68° ESE 00:39:06 10° NE
Resurs 1-4 Rocket 3.4 00:33:24 10° N 00:36:35 30° NNW 00:36:35 30° NNW
Cosmos 1980 Rocket 3.3 00:40:04 33° NNW 00:40:04 33° NNW 00:44:47 10° NNE
Intercosmos 25 4.5 00:35:24 10° N 00:39:40 63° ENE 00:46:28 10° SSE
USA 267 3.7 00:35:01 10° ENE 00:41:22 49° SE 00:42:48 42° S
Meteor 1-23 Rocket 4.1 00:42:29 88° ESE 00:42:29 88° ESE 00:48:06 10° NNE
Meteor 2-14 Rocket 4.5 00:43:52 51° S 00:45:30 78° E 00:51:41 10° NNE
Cosmos 1066 Rocket 4.1 00:50:44 69° S 00:51:23 82° ESE 00:56:59 10° NNE
Cosmos 1975 Rocket 3.6 00:53:13 54° NNE 00:53:13 54° NNE 00:56:43 10° NNE
Nadezhda 1 Rocket 4.4 00:47:06 10° NNW 00:52:00 46° NW 00:52:00 46° NW
COSMOS 2455 3.2 00:53:01 44° S 00:54:40 59° ESE 01:00:36 10° NE
NOSS 3-2 (C) 3.8 00:51:42 37° WNW 00:55:03 78° SW 01:03:15 10° SE
Cosmos 1943 Rocket 4.2 00:53:03 10° NNW 00:57:39 25° NNE 01:02:15 10° E
CZ-2C R/B 4.1 00:58:56 10° NNE 01:01:00 31° N 01:01:00 31° N
Cosmos 1745 Rocket 3.9 01:02:25 60° WSW 01:03:19 68° WNW 01:09:36 10° N
Meteor 2-16 Rocket 4.4 01:03:36 31° S 01:06:41 82° E 01:12:48 10° NNE
Cosmos 2278 Rocket 2.1 01:02:53 14° NW 01:07:49 89° WSW 01:13:30 10° SSE
ADEOS II 2.4 01:03:21 10° N 01:08:05 50° NW 01:08:05 50° NW
USA 229 DEB 4.3 01:06:54 36° WNW 01:09:15 48° NNW 01:16:13 10° ENE
USA 229 4.3 01:07:01 36° WNW 01:09:21 48° NNW 01:16:17 10° ENE
ARIANE 5 R/B 2.9 01:04:49 10° N 01:09:02 47° NW 01:09:02 47° NW
NOSS 2-3 (E) 4.3 01:09:03 50° NW 01:09:40 53° NNW 01:15:41 10° NE
CZ-2D R/B 3.6 01:08:37 10° N 01:11:42 22° NW 01:11:42 22° NW
Meteor 1-22 Rocket 3.9 01:07:35 10° NNW 01:12:59 66° W 01:13:44 59° SW
Cosmos 292 Rocket 3.6 01:11:00 31° NNW 01:13:21 89° WSW 01:18:10 10° SSE
NOSS 3-1 (A) 4.0 01:11:34 41° WNW 01:13:22 52° NNW 01:20:27 10° ENE
Cosmos 44 3.2 01:16:11 57° SSE 01:16:11 57° SSE 01:19:43 10° SE
Cosmos 2181 Rocket 3.9 01:09:23 10° NNW 01:15:50 80° W 01:22:06 10° S
Cosmos 2333 Rocket 2.8 01:13:16 24° S 01:16:30 54° ESE 01:22:04 10° NE
Cosmos 44 Rocket 3.9 01:15:09 28° NNW 01:17:19 50° NNE 01:21:55 10° ESE
TIMED 4.4 01:17:31 77° NW 01:17:31 77° NW 01:21:50 10° NNE
NOSS 2-3 (D) 4.4 01:16:43 47° NW 01:17:36 52° NNW 01:23:35 10° NE
BREEZE-M DEB (TANK) 3.9 01:18:13 29° S 01:18:21 29° S 01:21:06 10° ESE
PSLV R/B 4.0 01:14:12 10° NNE 01:18:27 59° ESE 01:20:19 31° S
USA 234 3.6 01:12:59 10° SSE 01:19:03 40° SW 01:19:11 40° SW
Aureole 1 Rocket 4.0 01:15:45 20° S 01:19:51 59° ESE 01:24:29 10° NE
Cosmos 1025 Rocket 3.6 01:21:05 17° SSE 01:24:10 54° E 01:28:22 10° NNE
Cosmos 921 Rocket 3.4 01:28:52 47° S 01:28:52 47° S 01:32:01 10° SSE
BREEZE-M R/B 4.5 01:26:02 32° SSW 01:27:56 44° SSE 01:36:58 10° E
Cosmos 489 Rocket 4.3 01:22:02 10° NNW 01:28:17 81° WSW 01:34:33 10° SSE
Cosmos 2333 4.1 01:28:01 36° SSW 01:30:28 85° ESE 01:36:11 10° NE
NOSS 3-1 (C) 4.3 01:28:00 29° WNW 01:30:53 46° N 01:38:00 10° ENE
Spot 4 Rocket 4.4 01:26:50 10° N 01:31:41 42° WNW 01:31:56 42° WNW
ATLAS 3B R/B 2.5 01:27:55 24° NW 01:32:10 72° SW 01:38:56 10° SE
Cosmos 1378 3.0 01:32:07 82° SSW 01:32:16 88° W 01:36:04 10° NNE
Cosmos 1697 Rocket 4.5 01:32:34 16° NW 01:34:38 19° NNW 01:38:39 10° NNE
SL-16 R/B 3.0 01:35:10 32° WNW 01:36:17 35° NW 01:41:30 10° NNE
MSX 4.2 01:32:33 10° NNE 01:38:17 66° ESE 01:43:59 10° S
Cosmos 2322 3.6 01:37:23 37° SW 01:39:45 76° NW 01:45:32 10° NNE
IDEFIX/ARIANE 42P 2.5 01:36:38 10° NNE 01:41:56 87° WNW 01:46:19 15° SSW
Cosmos 1536 Rocket 3.4 01:40:55 23° S 01:43:32 90° NW 01:47:55 10° NNE
CENTAUR R/B 3.1 01:38:06 16° NW 01:44:29 64° SW 01:52:56 10° SSE
Cosmos 2219 Rocket 2.2 01:41:53 22° SSW 01:45:33 80° ESE 01:51:11 10° NE
Cosmos 389 Rocket 4.2 01:42:47 10° SSE 01:45:53 32° E 01:49:00 10° NNE
Cosmos 1953 2.5 01:44:01 10° N 01:48:05 72° ENE 01:52:06 10° SSE
Cosmos 2237 Rocket 3.3 01:48:40 10° S 01:54:02 45° ESE 01:59:28 10° NE
SKYMED 2 4.4 01:50:09 10° SE 01:54:22 52° ENE 01:58:36 10° N
Cosmos 1758 3.2 01:51:49 10° NNW 01:55:46 61° W 01:59:43 10° S
Gblst 52 Del rocket 4.4 01:53:53 33° WSW 01:56:07 54° S 02:01:45 10° ESE
NOSS 2-2 (C) 3.7 01:54:21 29° SSW 01:56:09 62° SE 02:00:37 10° NE
ATLAS 2AS CENTAUR R/B 3.5 01:50:03 10° SSW 01:57:54 60° SE 02:05:44 10° NE
Cosmos 2251 Rocket 3.7 01:59:26 29° WSW 02:02:03 55° NW 02:07:23 10° NNE
Cosmos 2369 Rocket 3.5 01:58:56 10° NNW 02:04:13 39° NE 02:09:27 10° ESE
Lacrosse 4 Rocket 3.2 02:05:43 16° NW 02:06:54 18° NNW 02:09:48 10° NNE
GP-B 4.1 02:02:44 10° SSE 02:07:02 50° E 02:11:21 10° N
Cosmos 1356 3.9 02:03:34 10° N 02:07:02 63° ENE 02:10:27 10° SSE
COSMOS 2428 2.6 02:03:09 18° SW 02:07:25 78° NW 02:13:08 10° NNE
Cosmos 2322 Rocket 3.3 02:05:39 23° WNW 02:07:46 29° NNW 02:12:38 10° NNE
Meteor 2-10 4.4 02:04:01 10° N 02:09:08 67° ENE 02:14:24 10° SSE
Cosmos 1606 Rocket 3.4 02:05:44 10° NNW 02:10:05 85° W 02:14:25 10° S
Cosmos 1980 4.2 02:05:21 10° SSW 02:10:53 60° ESE 02:16:28 10° NE
Okean 2 4.3 02:11:55 28° WNW 02:12:07 28° WNW 02:15:44 10° N
Meteor 1-31 Rocket 3.0 02:09:02 10° NNE 02:12:52 69° ESE 02:16:39 10° S
COSMOS 2441 4.3 02:09:24 10° NNE 02:14:19 75° WNW 02:19:13 10° SSW
Cosmos 2154 Rocket 4.4 02:09:18 10° S 02:15:26 68° E 02:21:37 10° NNE
Resurs 1-4 Rocket 4.2 02:15:27 10° NNW 02:16:45 11° NW 02:17:39 10° NW
Cosmos 2360 Rocket 2.9 02:15:12 24° W 02:17:54 36° NW 02:23:08 10° NNE
Cosmos 1470 3.3 02:16:49 10° NNW 02:20:27 36° W 02:24:03 10° SSW
CZ-4B R/B 3.9 02:17:53 10° NNE 02:21:47 82° ESE 02:25:50 10° SSW
Cosmos 1709 Rocket 4.5 02:17:23 16° SW 02:22:03 39° WNW 02:28:00 10° N
Cosmos 1763 Rocket 4.3 02:19:24 10° NNW 02:24:31 52° NE 02:29:33 10° SE
USA 267 3.3 02:18:13 10° ENE 02:24:48 88° SSE 02:30:09 17° WSW
Cosmos 2184 Rocket 3.9 02:19:01 10° SSW 02:25:14 74° WNW 02:31:35 10° N
Cosmos 1980 Rocket 4.1 02:21:50 11° NW 02:25:25 18° N 02:29:17 10° NNE
Cosmos 1707 2.7 02:22:54 10° SSW 02:26:50 83° WNW 02:30:47 10° N
Cosmos 1842 4.0 02:26:48 22° WSW 02:28:34 32° WNW 02:32:09 10° N
Nadezhda 3 Rocket 4.0 02:23:14 10° NNW 02:29:36 70° W 02:35:54 10° S
Okean 1-7 Rocket 4.3 02:25:19 10° S 02:29:41 57° E 02:34:08 10° NNE
Cosmos 1484 Rocket 3.7 02:26:07 10° NNE 02:29:48 51° E 02:33:31 10° S
H-2A R/B 2.7 02:27:50 10° N 02:31:46 47° WNW 02:35:50 10° SW
NOSS 2-2 (E) 3.5 02:29:11 20° WSW 02:31:53 73° NNW 02:36:45 10° NE
Cosmos 1190 Rocket 4.1 02:28:32 10° SSW 02:33:50 80° ESE 02:39:09 10° NNE
ADEOS 4.0 02:30:07 10° N 02:35:00 40° WNW 02:39:51 10° SW
SJ-6F 4.5 02:31:07 10° N 02:35:15 58° WNW 02:39:19 10° SSW
Cosmos 407 Rocket 3.5 02:30:40 10° SSW 02:35:49 90° SE 02:40:59 10° NNE
NOSS 8 (F) 4.4 02:34:51 23° WSW 02:36:33 55° NNW 02:39:53 10° NE
CZ-2C R/B 2.5 02:32:27 10° NNE 02:37:38 68° WNW 02:42:46 10° SSW
ALOS 3.7 02:33:52 10° NNE 02:38:20 41° E 02:42:44 10° SSE
Meteor 1-16 Rocket 4.0 02:35:08 10° NNW 02:40:24 63° W 02:45:39 10° S
COSMOS 2455 3.2 02:36:11 16° WSW 02:40:49 49° NNW 02:46:41 10° NE
ERBS 3.3 02:38:09 11° SW 02:41:16 42° SSE 02:44:30 10° ENE
USA 116 3.4 02:37:33 10° SSE 02:41:16 88° WSW 02:44:38 10° NNW
COSMO-SKYMED 1 2.5 02:38:09 10° S 02:42:27 63° WSW 02:46:48 10° NNW
Cosmos 1943 Rocket 2.6 02:36:48 10° NNW 02:42:28 66° NE 02:48:07 10° SE
Cosmos 1726 2.0 02:39:35 10° NNW 02:43:15 73° W 02:46:54 10° S
COBE Rocket 4.0 02:40:08 10° S 02:45:09 63° W 02:50:19 10° NNW
Cosmos 2344 4.4 02:37:06 10° NW 02:46:16 72° SW 02:58:59 10° SSE
SL-16 R/B 3.4 02:41:03 10° S 02:46:24 45° ESE 02:51:49 10° NE
ADEOS II 3.9 02:44:28 10° NNW 02:47:06 14° NW 02:49:01 12° WNW
ARIANE 5 R/B 4.3 02:45:30 10° NNW 02:47:43 13° NW 02:49:22 11° WNW
Cosmos 2297 3.9 02:45:36 10° NW 02:51:10 52° WSW 02:56:43 10° S
Cosmos 2278 Rocket 3.3 02:47:02 10° NW 02:51:12 21° WSW 02:55:21 10° SSW
NOSS 0 Rocket 3.9 02:45:11 10° SW 02:51:22 78° NW 02:57:37 10° NE
Cosmos 1726 Rocket 3.8 02:47:14 10° NNW 02:51:22 44° W 02:55:28 10° SSW
Cosmos 2228 3.4 02:51:32 10° NNW 02:55:31 38° W 02:59:27 10° SSW
Cosmos 1674 3.5 02:52:48 10° S 02:56:26 54° E 03:00:06 10° NNE
Meteor 1-4 Rocket 2.5 02:54:36 10° SSW 02:58:03 57° WNW 03:01:30 10° N
Okean O Rocket 2.4 02:53:50 10° NNE 02:58:14 57° ESE 03:02:33 10° S
Cosmos 2074 Rocket 4.3 02:52:47 10° SW 02:58:45 46° WNW 03:04:45 10° N
Cosmos 44 Rocket 3.6 02:54:20 10° NW 02:58:52 45° SW 03:03:20 10° SSE
Cosmos 2333 Rocket 2.7 02:55:35 10° WSW 03:00:59 43° NW 03:06:27 10° NNE
USA 229 DEB 4.4 02:54:42 10° WNW 03:01:29 50° NNE 03:08:37 10° E
USA 229 4.4 02:54:48 10° WNW 03:01:34 50° NNE 03:08:40 10° E
Cosmos 1025 Rocket 4.1 02:58:39 10° WSW 03:02:07 23° WNW 03:05:35 10° N
Aureole 1 Rocket 4.2 02:59:23 10° WSW 03:04:32 32° NW 03:08:35 10° NNE
NOSS 3-1 (A) 4.5 02:59:12 10° WNW 03:05:32 47° N 03:12:59 10° E
Cosmos 2058 Rocket 3.3 03:03:25 10° NNW 03:07:38 45° W 03:11:51 10° SSW
NOSS 3-4 (A) 3.6 03:01:42 10° SW 03:07:49 83° SE 03:14:28 10° NE
NOSS 3-4 (C) 3.6 03:01:48 10° SW 03:07:55 82° SE 03:14:34 10° NE
Meteor 2-5 Rocket 4.2 03:03:35 10° S 03:09:24 74° E 03:15:19 10° NNE
Cosmos 1295 Rocket 4.4 03:03:14 10° SSW 03:09:24 74° WNW 03:15:33 10° N
NOSS 2-2 (D) 3.8 03:06:19 10° WSW 03:10:11 54° NNW 03:15:00 10° NE
CZ-4B R/B 3.4 03:06:30 10° N 03:10:23 38° WNW 03:14:04 10° SW
Cosmos 1300 3.5 03:07:03 10° N 03:10:50 55° ENE 03:14:35 10° SSE
Cosmos 1954 Rocket 4.0 03:07:00 10° SSW 03:12:15 88° WNW 03:17:30 10° NNE
SL-8 Rocket 4.2 03:06:28 10° S 03:12:38 77° E 03:18:49 10° NNE
PSLV R/B 4.0 03:15:52 10° N 03:19:27 44° WNW 03:22:59 10° SW
Cosmos 2366 rocket 4.5 03:13:56 10° S 03:20:15 71° E 03:26:36 10° NNE
Cosmos 389 Rocket 3.5 03:17:45 10° WSW 03:20:40 25° WNW 03:23:38 10° N
IDEFIX/ARIANE 42P 3.9 03:17:01 10° N 03:20:54 21° NW 03:24:46 10° W
Cosmos 1570 Rocket 4.1 03:16:01 10° NNW 03:21:23 75° WSW 03:26:43 10° SSE
ATLAS 3B R/B 3.8 03:17:00 10° WNW 03:21:53 22° WSW 03:26:49 10° SSW
Cosmos 468 Rocket 4.1 03:16:56 10° NNW 03:22:02 56° WSW 03:27:02 10° S
SL-16 R/B 3.9 03:18:11 10° NW 03:22:06 19° NNW 03:26:01 10° NNE
Cosmos 1140 Rocket 3.5 03:17:06 10° SW 03:22:15 62° WNW 03:27:23 10° NNE
Cosmos 1437 Rocket 2.6 03:18:37 10° SSW 03:22:24 70° WNW 03:26:13 10° N
NOSS 3-1 (C) 4.4 03:16:26 10° WNW 03:23:01 53° NNE 03:30:46 10° E
Cosmos 1953 3.9 03:21:30 10° NW 03:23:59 16° W 03:26:26 10° WSW
Cosmos-2242 4.4 03:21:46 10° N 03:25:53 42° ENE 03:29:57 10° SE
Cosmos 614 Rocket 4.4 03:22:24 10° SW 03:27:25 45° NW 03:32:26 10° NNE
